This is the latest recevied weather packets stored in our database for station/object WA0LM. If no packets are shown the sender has not sent any weather packets the latest 10 day(s).
| Time | Temp. | Humidity | Pressure | Rain* | Wind** | Luminosity | Snow |
|---|---|---|---|---|---|---|---|
| 1777915787 | 8.89° C | 63% | 999.3 hPa | 0 mm | - | 444 W/m² | - |
| 1777915483 | 8.89° C | 59% | 999.2 hPa | 0 mm | - | 853 W/m² | - |
| 1777915180 | 9.44° C | 62% | 999.1 hPa | 0 mm | - | 886 W/m² | - |
| 1777914877 | 9.44° C | 60% | 999.2 hPa | 0 mm | - | 273 W/m² | - |
| 1777914574 | 9.44° C | 57% | 999 hPa | 0 mm | - | 254 W/m² | - |
| 1777914270 | 9.44° C | 58% | 998.9 hPa | 0 mm | - | 309 W/m² | - |
| 1777913967 | 9.44° C | 60% | 998.7 hPa | 0 mm | - | 522 W/m² | - |
| 1777913663 | 9.44° C | 58% | 998.7 hPa | 0 mm | - | 546 W/m² | - |
| 1777913360 | 10° C | 54% | 998.8 hPa | 0 mm | - | 440 W/m² | - |
| 1777913057 | 9.44° C | 62% | 998.5 hPa | 0 mm | - | 750 W/m² | - |
| 1777912753 | 8.89° C | 60% | 998.8 hPa | 0 mm | - | 243 W/m² | - |
| 1777912449 | 9.44° C | 59% | 998.7 hPa | 0 mm | - | 901 W/m² | - |
| 1777912145 | 9.44° C | 60% | 998.7 hPa | 0 mm | - | 824 W/m² | - |
| 1777911841 | 9.44° C | 58% | 998.5 hPa | 0 mm | - | 185 W/m² | - |
| 1777911538 | 9.44° C | 60% | 998.6 hPa | 0 mm | - | 209 W/m² | - |
| 1777911235 | 8.89° C | 60% | 998.3 hPa | 0 mm | - | 839 W/m² | - |
| 1777910932 | 9.44° C | 59% | 998.4 hPa | 0 mm | - | 180 W/m² | - |
| 1777910629 | 8.89° C | 61% | 998.3 hPa | 0 mm | - | 764 W/m² | - |
| 1777910326 | 8.89° C | 64% | 998.2 hPa | 0 mm | - | 275 W/m² | - |
| 1777910023 | 8.89° C | 64% | 998.2 hPa | 0 mm | - | 272 W/m² | - |
| 1777909720 | 9.44° C | 69% | 998.3 hPa | 0 mm | - | 262 W/m² | - |
| 1777909417 | 9.44° C | 66% | 998.1 hPa | 0 mm | - | 209 W/m² | - |
| 1777909115 | 9.44° C | 62% | 997.9 hPa | 0 mm | - | 364 W/m² | - |
| 1777908813 | 9.44° C | 62% | 997.9 hPa | 0 mm | - | 554 W/m² | - |
| 1777908509 | 9.44° C | 61% | 997.8 hPa | 0 mm | - | 203 W/m² | - |
* Rain latest hour (hover to see other rain measurements)
** Current wind speed in m/s (hover to see current wind gust speed)